Time,TemperatureF,DewpointF,PressureIn,WindDirection,WindDirectionDegrees,WindSpeedMPH,WindSpeedGustMPH,Humidity,HourlyPrecipIn,Conditions,Clouds,dailyrainin,SoftwareType,DateUTC
2017-10-23 00:02:00,66.1,53.0,29.99,SW,225,5.0,-999.0,63,0.00,,,0.00,,2017-10-23 04:02:00,
2017-10-23 00:07:00,66.1,53.0,29.99,SW,225,2.0,-999.0,63,0.00,,,0.00,,2017-10-23 04:07:00,
2017-10-23 00:12:00,65.9,53.0,29.99,South,180,4.0,-999.0,65,0.00,,,0.00,,2017-10-23 04:12:00,
2017-10-23 00:17:00,65.9,53.0,29.99,SSE,158,4.0,-999.0,65,0.00,,,0.00,,2017-10-23 04:17:00,
2017-10-23 00:22:00,65.8,53.0,29.99,SSE,158,2.0,-999.0,65,0.00,,,0.00,,2017-10-23 04:22:00,
2017-10-23 00:27:00,65.6,53.0,29.99,WSW,248,2.0,-999.0,65,0.00,,,0.00,,2017-10-23 04:27:00,
2017-10-23 00:32:00,65.6,53.0,29.99,SSE,158,3.0,-999.0,65,0.00,,,0.00,,2017-10-23 04:32:00,
2017-10-23 00:37:00,65.5,53.0,29.98,SE,135,3.0,-999.0,65,0.00,,,0.00,,2017-10-23 04:37:00,
2017-10-23 00:42:00,65.5,53.0,29.99,SSE,158,4.0,-999.0,65,0.00,,,0.00,,2017-10-23 04:42:00,
2017-10-23 00:47:00,65.5,53.0,29.98,South,180,2.0,-999.0,65,0.00,,,0.00,,2017-10-23 04:47:00,
2017-10-23 00:52:00,65.5,53.0,29.99,SSE,158,2.0,-999.0,65,0.00,,,0.00,,2017-10-23 04:52:00,
2017-10-23 00:57:00,65.5,53.0,29.98,SSE,158,4.0,-999.0,65,0.00,,,0.00,,2017-10-23 04:57:00,
2017-10-23 01:02:00,65.5,53.0,29.98,ESE,113,4.0,-999.0,65,0.00,,,0.00,,2017-10-23 05:02:00,
2017-10-23 01:07:00,65.5,53.0,29.98,SSE,158,3.0,-999.0,65,0.00,,,0.00,,2017-10-23 05:07:00,
2017-10-23 01:12:00,65.5,52.0,29.98,SSW,203,3.0,-999.0,63,0.00,,,0.00,,2017-10-23 05:12:00,
2017-10-23 01:18:00,65.5,52.0,29.98,WSW,248,3.0,-999.0,63,0.00,,,0.00,,2017-10-23 05:18:00,
2017-10-23 01:23:00,65.5,52.0,29.98,South,180,3.0,-999.0,63,0.00,,,0.00,,2017-10-23 05:23:00,
2017-10-23 01:33:00,65.2,52.0,29.97,South,180,3.0,-999.0,63,0.00,,,0.00,,2017-10-23 05:33:00,
2017-10-23 01:38:00,65.2,52.0,29.97,SSE,158,3.0,-999.0,63,0.00,,,0.00,,2017-10-23 05:38:00,
2017-10-23 01:43:00,65.2,52.0,29.98,SSE,158,4.0,-999.0,63,0.00,,,0.00,,2017-10-23 05:43:00,
2017-10-23 01:48:00,65.0,52.0,29.98,SE,135,2.0,-999.0,63,0.00,,,0.00,,2017-10-23 05:48:00,
2017-10-23 01:53:00,65.0,52.0,29.97,SSE,158,3.0,-999.0,63,0.00,,,0.00,,2017-10-23 05:53:00,
2017-10-23 01:59:00,65.0,52.0,29.97,South,180,1.0,-999.0,63,0.00,,,0.00,,2017-10-23 05:59:00,
2017-10-23 02:04:00,64.9,52.0,29.98,SSW,203,2.0,-999.0,65,0.00,,,0.00,,2017-10-23 06:04:00,
2017-10-23 02:09:00,64.8,52.0,29.96,SW,225,2.0,-999.0,65,0.00,,,0.00,,2017-10-23 06:09:00,
2017-10-23 02:14:00,64.8,52.0,29.96,SSE,158,3.0,-999.0,65,0.00,,,0.00,,2017-10-23 06:14:00,
2017-10-23 02:19:00,64.8,52.0,29.96,South,180,0.0,-999.0,65,0.00,,,0.00,,2017-10-23 06:19:00,
2017-10-23 02:24:00,64.6,52.0,29.97,SSE,158,3.0,-999.0,65,0.00,,,0.00,,2017-10-23 06:24:00,
2017-10-23 02:29:00,64.4,52.0,29.97,WSW,248,2.0,-999.0,65,0.00,,,0.00,,2017-10-23 06:29:00,
2017-10-23 02:34:00,64.4,52.0,29.96,SSW,203,2.0,-999.0,65,0.00,,,0.00,,2017-10-23 06:34:00,
2017-10-23 02:39:00,64.1,52.0,29.96,SSE,158,2.0,-999.0,65,0.00,,,0.00,,2017-10-23 06:39:00,
2017-10-23 02:44:00,64.1,52.0,29.96,South,180,2.0,-999.0,65,0.00,,,0.00,,2017-10-23 06:44:00,
2017-10-23 02:49:00,64.1,52.0,29.96,SSW,203,1.0,-999.0,65,0.00,,,0.00,,2017-10-23 06:49:00,
2017-10-23 02:54:00,63.9,52.0,29.96,SSW,203,2.0,-999.0,66,0.00,,,0.00,,2017-10-23 06:54:00,
2017-10-23 02:59:00,63.9,52.0,29.96,SSW,203,1.0,-999.0,66,0.00,,,0.00,,2017-10-23 06:59:00,
2017-10-23 03:04:00,63.9,52.0,29.96,SW,225,2.0,-999.0,66,0.00,,,0.00,,2017-10-23 07:04:00,
2017-10-23 03:06:00,63.9,52.0,29.96,SW,225,0.0,-999.0,66,0.00,,,0.00,,2017-10-23 07:06:00,
2017-10-23 03:11:00,63.9,52.0,29.95,SSE,158,2.0,-999.0,66,0.00,,,0.00,,2017-10-23 07:11:00,
2017-10-23 03:16:00,63.9,52.0,29.96,SW,225,2.0,-999.0,66,0.00,,,0.00,,2017-10-23 07:16:00,
2017-10-23 03:21:00,63.6,52.0,29.96,SSW,203,2.0,-999.0,66,0.00,,,0.00,,2017-10-23 07:21:00,
2017-10-23 03:26:00,63.6,52.0,29.96,ESE,113,3.0,-999.0,66,0.00,,,0.00,,2017-10-23 07:26:00,
2017-10-23 03:31:00,63.6,52.0,29.95,SSE,158,3.0,-999.0,66,0.00,,,0.00,,2017-10-23 07:31:00,
2017-10-23 03:36:00,63.4,52.0,29.96,SSW,203,4.0,-999.0,68,0.00,,,0.00,,2017-10-23 07:36:00,
2017-10-23 03:41:00,63.2,52.0,29.95,SE,135,2.0,-999.0,68,0.00,,,0.00,,2017-10-23 07:41:00,
2017-10-23 03:46:00,63.2,52.0,29.95,South,180,1.0,-999.0,68,0.00,,,0.00,,2017-10-23 07:46:00,
2017-10-23 03:51:00,63.2,52.0,29.95,SE,135,3.0,-999.0,66,0.00,,,0.00,,2017-10-23 07:51:00,
2017-10-23 03:56:00,63.0,51.0,29.94,South,180,3.0,-999.0,66,0.00,,,0.00,,2017-10-23 07:56:00,
2017-10-23 04:01:00,63.0,51.0,29.96,South,180,2.0,-999.0,66,0.00,,,0.00,,2017-10-23 08:01:00,
2017-10-23 04:06:00,63.0,51.0,29.94,SE,135,4.0,-999.0,66,0.00,,,0.00,,2017-10-23 08:06:00,
2017-10-23 04:11:00,63.0,51.0,29.95,South,180,2.0,-999.0,66,0.00,,,0.00,,2017-10-23 08:11:00,
2017-10-23 04:16:00,63.0,51.0,29.94,SSE,158,3.0,-999.0,66,0.00,,,0.00,,2017-10-23 08:16:00,
2017-10-23 04:21:00,63.0,51.0,29.95,NE,45,3.0,-999.0,66,0.00,,,0.00,,2017-10-23 08:21:00,
2017-10-23 04:26:00,63.0,51.0,29.94,SSW,203,2.0,-999.0,66,0.00,,,0.00,,2017-10-23 08:26:00,
2017-10-23 04:31:00,63.0,52.0,29.95,SSW,203,2.0,-999.0,68,0.00,,,0.00,,2017-10-23 08:31:00,
2017-10-23 04:36:00,63.0,52.0,29.95,SSW,203,0.0,-999.0,68,0.00,,,0.00,,2017-10-23 08:36:00,
2017-10-23 04:41:00,62.7,52.0,29.95,SSW,203,0.0,-999.0,68,0.00,,,0.00,,2017-10-23 08:41:00,
2017-10-23 04:47:00,62.5,51.0,29.94,SSW,203,1.0,-999.0,68,0.00,,,0.00,,2017-10-23 08:47:00,
2017-10-23 04:52:00,62.5,51.0,29.94,SSW,203,2.0,-999.0,68,0.00,,,0.00,,2017-10-23 08:52:00,
2017-10-23 04:57:00,62.4,51.0,29.93,SSW,203,2.0,-999.0,68,0.00,,,0.00,,2017-10-23 08:57:00,
2017-10-23 05:02:00,62.4,52.0,29.92,SSW,203,2.0,-999.0,69,0.00,,,0.00,,2017-10-23 09:02:00,
2017-10-23 05:07:00,62.2,51.0,29.93,SSW,203,1.0,-999.0,69,0.00,,,0.00,,2017-10-23 09:07:00,
2017-10-23 05:12:00,62.1,51.0,29.93,WSW,248,2.0,-999.0,69,0.00,,,0.00,,2017-10-23 09:12:00,
2017-10-23 05:17:00,62.1,52.0,29.92,SSW,203,3.0,-999.0,70,0.00,,,0.00,,2017-10-23 09:17:00,
2017-10-23 05:22:00,61.9,52.0,29.93,SW,225,2.0,-999.0,70,0.00,,,0.00,,2017-10-23 09:22:00,
2017-10-23 05:27:00,61.7,51.0,29.93,South,180,3.0,-999.0,70,0.00,,,0.00,,2017-10-23 09:27:00,
2017-10-23 05:32:00,61.7,51.0,29.93,SSW,203,2.0,-999.0,70,0.00,,,0.00,,2017-10-23 09:32:00,
2017-10-23 05:37:00,61.7,51.0,29.92,NNE,23,1.0,-999.0,70,0.00,,,0.00,,2017-10-23 09:37:00,
2017-10-23 05:42:00,61.5,51.0,29.92,NNW,338,1.0,-999.0,70,0.00,,,0.00,,2017-10-23 09:42:00,
2017-10-23 05:47:00,61.1,51.0,29.92,WNW,293,1.0,-999.0,70,0.00,,,0.00,,2017-10-23 09:47:00,
2017-10-23 05:52:00,61.1,51.0,29.92,SSW,203,3.0,-999.0,70,0.00,,,0.00,,2017-10-23 09:52:00,
2017-10-23 05:57:00,61.1,51.0,29.92,SSW,203,1.0,-999.0,70,0.00,,,0.00,,2017-10-23 09:57:00,
2017-10-23 06:02:00,61.0,51.0,29.92,SSW,203,0.0,-999.0,70,0.00,,,0.00,,2017-10-23 10:02:00,
2017-10-23 06:07:00,60.7,51.0,29.92,South,180,0.0,-999.0,70,0.00,,,0.00,,2017-10-23 10:07:00,
2017-10-23 06:12:00,60.5,51.0,29.91,South,180,0.0,-999.0,71,0.00,,,0.00,,2017-10-23 10:12:00,
2017-10-23 06:18:00,60.3,51.0,29.91,South,180,2.0,-999.0,71,0.00,,,0.00,,2017-10-23 10:18:00,
2017-10-23 06:22:00,60.3,51.0,29.91,South,180,0.0,-999.0,71,0.00,,,0.00,,2017-10-23 10:22:00,
2017-10-23 06:27:00,60.2,51.0,29.91,South,180,0.0,-999.0,73,0.00,,,0.00,,2017-10-23 10:27:00,
2017-10-23 06:32:00,60.2,51.0,29.91,SW,225,2.0,-999.0,73,0.00,,,0.00,,2017-10-23 10:32:00,
2017-10-23 06:38:00,60.2,51.0,29.91,SSW,203,1.0,-999.0,73,0.00,,,0.00,,2017-10-23 10:38:00,
2017-10-23 06:42:00,60.2,51.0,29.91,SSW,203,0.0,-999.0,73,0.00,,,0.00,,2017-10-23 10:42:00,
2017-10-23 06:47:00,60.2,51.0,29.90,South,180,1.0,-999.0,73,0.00,,,0.00,,2017-10-23 10:47:00,
2017-10-23 06:52:00,60.0,51.0,29.90,South,180,0.0,-999.0,73,0.00,,,0.00,,2017-10-23 10:52:00,
2017-10-23 06:57:00,60.0,51.0,29.91,SSE,158,3.0,-999.0,73,0.00,,,0.00,,2017-10-23 10:57:00,
2017-10-23 07:02:00,60.2,51.0,29.91,SSE,158,1.0,-999.0,73,0.00,,,0.00,,2017-10-23 11:02:00,
2017-10-23 07:07:00,60.2,51.0,29.90,SW,225,2.0,-999.0,73,0.00,,,0.00,,2017-10-23 11:07:00,
2017-10-23 07:12:00,60.2,51.0,29.89,SW,225,1.0,-999.0,73,0.00,,,0.00,,2017-10-23 11:12:00,
2017-10-23 07:18:00,60.2,51.0,29.90,South,180,3.0,-999.0,73,0.00,,,0.00,,2017-10-23 11:18:00,
2017-10-23 07:23:00,60.2,51.0,29.90,South,180,2.0,-999.0,73,0.00,,,0.00,,2017-10-23 11:23:00,
2017-10-23 07:28:00,60.2,51.0,29.91,SSW,203,0.0,-999.0,73,0.00,,,0.00,,2017-10-23 11:28:00,
2017-10-23 07:33:00,60.2,51.0,29.89,SSW,203,2.0,-999.0,73,0.00,,,0.00,,2017-10-23 11:33:00,
2017-10-23 07:37:00,60.2,51.0,29.89,SSW,203,0.0,-999.0,73,0.00,,,0.00,,2017-10-23 11:37:00,
2017-10-23 07:43:00,60.2,51.0,29.89,SSW,203,0.0,-999.0,73,0.00,,,0.00,,2017-10-23 11:43:00,
2017-10-23 07:48:00,60.2,51.0,29.90,SSW,203,0.0,-999.0,74,0.00,,,0.00,,2017-10-23 11:48:00,
2017-10-23 07:53:00,60.2,51.0,29.89,SSW,203,0.0,-999.0,74,0.00,,,0.00,,2017-10-23 11:53:00,
2017-10-23 07:58:00,60.0,51.0,29.89,SSW,203,0.0,-999.0,74,0.00,,,0.00,,2017-10-23 11:58:00,
2017-10-23 08:02:00,60.0,51.0,29.89,SSW,203,0.0,-999.0,74,0.00,,,0.00,,2017-10-23 12:02:00,
2017-10-23 08:08:00,59.9,51.0,29.89,SW,225,1.0,-999.0,74,0.00,,,0.00,,2017-10-23 12:08:00,
2017-10-23 08:13:00,59.9,51.0,29.88,SW,225,2.0,-999.0,74,0.00,,,0.00,,2017-10-23 12:13:00,
2017-10-23 08:18:00,59.9,51.0,29.88,West,270,1.0,-999.0,74,0.00,,,0.00,,2017-10-23 12:18:00,
2017-10-23 08:24:00,59.9,51.0,29.89,West,270,0.0,-999.0,74,0.00,,,0.00,,2017-10-23 12:24:00,
2017-10-23 08:29:00,59.9,51.0,29.88,West,270,0.0,-999.0,74,0.00,,,0.00,,2017-10-23 12:29:00,
2017-10-23 08:34:00,59.7,51.0,29.88,SSE,158,0.0,-999.0,74,0.00,,,0.00,,2017-10-23 12:34:00,
2017-10-23 08:39:00,59.7,51.0,29.88,West,270,2.0,-999.0,75,0.00,,,0.00,,2017-10-23 12:39:00,
2017-10-23 08:44:00,59.4,51.0,29.88,West,270,2.0,-999.0,75,0.00,,,0.00,,2017-10-23 12:44:00,
2017-10-23 08:49:00,59.4,51.0,29.87,West,270,0.0,-999.0,75,0.00,,,0.00,,2017-10-23 12:49:00,
2017-10-23 08:54:00,59.3,51.0,29.88,WNW,293,1.0,-999.0,75,0.00,,,0.00,,2017-10-23 12:54:00,
2017-10-23 08:59:00,59.3,51.0,29.88,ESE,113,1.0,-999.0,75,0.00,,,0.00,,2017-10-23 12:59:00,
2017-10-23 09:04:00,59.0,51.0,29.87,NNW,338,0.0,-999.0,76,0.00,,,0.00,,2017-10-23 13:04:00,
2017-10-23 09:09:00,58.8,51.0,29.88,NNW,338,0.0,-999.0,76,0.00,,,0.00,,2017-10-23 13:09:00,
2017-10-23 09:14:00,58.8,51.0,29.87,NNW,338,0.0,-999.0,76,0.00,,,0.00,,2017-10-23 13:14:00,
2017-10-23 09:19:00,58.8,51.0,29.86,NNW,338,0.0,-999.0,76,0.00,,,0.00,,2017-10-23 13:19:00,
2017-10-23 09:24:00,58.8,51.0,29.86,NNW,338,0.0,-999.0,76,0.00,,,0.00,,2017-10-23 13:24:00,
2017-10-23 09:29:00,58.8,51.0,29.86,NNW,338,0.0,-999.0,76,0.00,,,0.00,,2017-10-23 13:29:00,
2017-10-23 09:34:00,58.5,51.0,29.85,NNW,338,0.0,-999.0,76,0.00,,,0.00,,2017-10-23 13:34:00,
2017-10-23 09:39:00,58.5,51.0,29.86,NNW,338,0.0,-999.0,76,0.00,,,0.00,,2017-10-23 13:39:00,
2017-10-23 09:44:00,58.5,51.0,29.84,NNW,338,0.0,-999.0,76,0.00,,,0.00,,2017-10-23 13:44:00,
2017-10-23 09:49:00,58.5,51.0,29.85,NNW,338,0.0,-999.0,76,0.00,,,0.00,,2017-10-23 13:49:00,
2017-10-23 09:54:00,58.8,51.0,29.85,West,270,0.0,-999.0,76,0.00,,,0.00,,2017-10-23 13:54:00,
2017-10-23 09:59:00,58.8,51.0,29.85,West,270,0.0,-999.0,76,0.00,,,0.00,,2017-10-23 13:59:00,
2017-10-23 10:04:00,59.0,51.0,29.85,SW,225,2.0,-999.0,76,0.00,,,0.00,,2017-10-23 14:04:00,
2017-10-23 10:09:00,59.0,51.0,29.86,SSW,203,0.0,-999.0,76,0.00,,,0.00,,2017-10-23 14:09:00,
2017-10-23 10:14:00,59.0,51.0,29.85,SSW,203,2.0,-999.0,76,0.00,,,0.00,,2017-10-23 14:14:00,
2017-10-23 10:19:00,59.3,52.0,29.86,WSW,248,3.0,-999.0,76,0.00,,,0.00,,2017-10-23 14:19:00,
2017-10-23 10:24:00,59.4,52.0,29.85,West,270,2.0,-999.0,76,0.00,,,0.00,,2017-10-23 14:24:00,
2017-10-23 10:29:00,59.7,52.0,29.84,West,270,2.0,-999.0,76,0.00,,,0.00,,2017-10-23 14:29:00,
2017-10-23 10:34:00,59.9,52.0,29.83,SW,225,2.0,-999.0,76,0.00,,,0.00,,2017-10-23 14:34:00,
2017-10-23 10:39:00,60.2,53.0,29.82,SSE,158,3.0,-999.0,76,0.00,,,0.00,,2017-10-23 14:39:00,
2017-10-23 10:44:00,60.2,53.0,29.82,SW,225,2.0,-999.0,76,0.00,,,0.00,,2017-10-23 14:44:00,
2017-10-23 10:49:00,60.5,53.0,29.83,SSW,203,0.0,-999.0,76,0.00,,,0.00,,2017-10-23 14:49:00,
2017-10-23 10:54:00,60.7,53.0,29.82,SW,225,0.0,-999.0,76,0.00,,,0.00,,2017-10-23 14:54:00,
2017-10-23 10:59:00,60.7,53.0,29.81,SSW,203,0.0,-999.0,76,0.00,,,0.00,,2017-10-23 14:59:00,
2017-10-23 11:04:00,61.0,53.0,29.80,SSW,203,1.0,-999.0,76,0.00,,,0.00,,2017-10-23 15:04:00,
2017-10-23 11:09:00,61.0,53.0,29.80,NW,315,0.0,-999.0,76,0.00,,,0.00,,2017-10-23 15:09:00,
2017-10-23 11:14:00,61.0,53.0,29.80,WNW,293,2.0,-999.0,76,0.00,,,0.00,,2017-10-23 15:14:00,
2017-10-23 11:19:00,61.0,53.0,29.81,North,0,2.0,-999.0,76,0.00,,,0.00,,2017-10-23 15:19:00,
2017-10-23 11:24:00,60.7,53.0,29.80,SW,225,2.0,-999.0,76,0.00,,,0.00,,2017-10-23 15:24:00,
2017-10-23 11:29:00,60.5,53.0,29.81,SSE,158,1.0,-999.0,78,0.00,,,0.00,,2017-10-23 15:29:00,
2017-10-23 11:34:00,60.2,53.0,29.80,SSW,203,1.0,-999.0,78,0.00,,,0.00,,2017-10-23 15:34:00,
2017-10-23 11:39:00,60.0,53.0,29.80,NE,45,2.0,-999.0,78,0.00,,,0.00,,2017-10-23 15:39:00,